#timestamp,LO_Frequency,Hit,StdDev 
1582225215.2,286046999.4,N
1582225235.9,286046995.1,N
1582225255.7,286046998.0,N
1582225275.6,286046997.5,N
1582225295.4,286046997.0,N
1582225315.3,286046999.5,N
1582225335.1,286046997.0,N
1582225336.0,286046997.0,N
1582225355.8,286046995.0,N
1582225375.7,286046996.8,N
1582225395.5,286046999.0,N
1582225415.3,286046998.5,N
1582225435.2,286047002.4,N
1582225455.0,286046998.6,N
1582225455.9,286046998.6,N
1582225475.8,286046998.6,N
1582225495.6,286046998.3,N
1582225515.4,286047000.0,N
1582225535.3,286046998.1,N
1582225555.1,286047000.7,N
1582225575.9,286047002.6,N
1582225595.7,286046998.7,N
1582225615.5,286046999.6,N
1582225635.4,286046998.2,N
1582225655.2,286046996.6,N
1582225675.0,286046997.8,N
1582225676.0,286046997.8,N
1582225695.8,286046997.5,N
1582225715.6,286046997.5,N
1582225735.5,286046998.3,N
1582225755.3,286047001.1,N
1582225775.2,286047000.5,N
1582225795.9,286047002.4,N
1582225815.7,286047000.7,N
1582225835.6,286046999.7,N
1582225855.4,286047001.2,N
1582225875.2,286046999.1,N
1582225895.1,286046999.3,N
1582225896.0,286046999.3,N
1582225915.8,286046998.7,N
1582225935.7,286047001.0,N
1582225955.5,286047001.1,N
1582225975.4,286046998.5,N
1582225995.2,286046998.7,N
1582226015.0,286046998.2,N
1582226015.9,286046998.2,N
1582226035.8,286046998.6,N
1582226055.6,286046998.3,N
1582226075.5,286046996.6,N
1582226095.3,286046998.6,N
1582226115.1,286046999.8,N
1582226135.9,286047000.2,N
1582226155.7,286046998.5,N
1582226175.6,286047000.4,N
1582226195.4,286047001.4,N
1582226215.2,286047000.9,N
1582226235.1,286047002.2,N
1582226236.0,286047002.2,N
1582226255.8,286047000.7,N
1582226275.7,286046998.4,N
1582226295.5,286046996.5,N
1582226315.3,286047000.7,N
1582226335.2,286046999.8,N
1582226355.0,286047000.2,N
1582226355.9,286047000.2,N
1582226375.8,286046999.9,N
1582226395.6,286046996.7,N
1582226415.4,286046997.4,N
1582226435.3,286046998.6,N
1582226455.1,286046996.6,N
1582226475.8,286047001.1,N
1582226495.7,286046999.4,N
1582226515.5,286046997.3,N
1582226535.4,286046997.1,N
1582226555.2,286046997.5,N
1582226575.0,286046999.2,N
1582226575.9,286046999.2,N
1582226595.8,286046998.5,N
1582226615.6,286046998.8,N
1582226635.5,286046998.2,N
1582226655.3,286046998.4,N
1582226675.1,286047000.6,N
1582226695.9,286046998.3,N
1582226715.7,286046997.0,N
1582226735.5,286046997.3,N
1582226755.4,286047000.7,N
1582226775.2,286047000.9,N
1582226795.1,286046999.5,N
1582226796.0,286046999.5,N
1582226815.8,286046996.8,N
1582226835.7,286046997.4,N
1582226855.5,286046995.0,Y
1582226875.3,286046997.1,P
1582226895.2,286046998.6,N
1582226915.0,286046999.9,N
1582226915.9,286046999.9,N
1582226935.8,286046999.6,N
1582226955.6,286046999.1,N
1582226975.4,286046998.8,N
1582226995.3,286046998.7,N
1582227015.1,286046996.6,Y
1582227035.8,286046998.6,P
1582227055.7,286046998.7,P
1582227075.5,286046998.5,P
1582227095.4,286046997.0,Y
1582227115.2,286046998.8,P
1582227135.0,286046998.1,P
1582227135.9,286046998.1,P
1582227155.8,286047000.8,N
1582227175.6,286047001.0,N
1582227195.5,286047002.5,N
1582227215.3,286047004.4,N
1582227235.1,286047004.2,N
1582227255.9,286047003.8,N
1582227275.7,286047003.5,N
1582227295.5,286047004.4,N
1582227315.4,286047002.1,N
1582227335.2,286047001.8,N
1582227355.1,286047004.1,N
1582227356.0,286047004.1,N
1582227375.8,286047002.6,N
1582227395.6,286047002.1,N
1582227415.5,286047002.0,N
1582227435.3,286047002.4,N
1582227455.2,286046999.7,N
1582227475.9,286047002.7,N
1582227495.7,286047000.3,N
1582227515.6,286047002.1,N
1582227535.4,286047000.2,N
1582227555.2,286047000.0,N
1582227575.1,286047000.2,N
1582227576.0,286047000.2,N
1582227595.8,286046999.7,N
1582227615.7,286047002.2,N
1582227635.5,286047004.0,N
1582227655.3,286047002.9,N
1582227675.2,286047004.0,N
1582227695.0,286047004.2,N
1582227695.9,286047004.2,N
1582227715.8,286046999.8,N
1582227735.6,286047000.5,N
1582227755.4,286047000.9,N
1582227775.3,286047000.1,N
1582227795.1,286047002.1,N
1582227815.8,286047004.0,N
1582227835.7,286047000.8,N
1582227855.5,286046998.4,N
1582227875.4,286046998.9,N
1582227895.2,286047001.1,N
1582227915.0,286046998.7,N
1582227915.9,286046998.7,N
1582227935.8,286046998.7,N
1582227955.6,286046999.2,N
1582227975.5,286046997.1,N
1582227995.3,286046996.7,N
1582228015.1,286046996.5,N
1582228035.9,286046997.2,N
1582228055.7,286046996.5,N
1582228075.5,286046996.7,N
1582228095.4,286046999.0,N
1582228115.2,286046998.7,N
1582228135.1,286046997.1,N
1582228136.0,286046997.1,N
1582228155.8,286046999.3,N
1582228175.6,286046996.5,N
1582228195.5,286046997.9,N
1582228215.3,286046995.1,N
1582228235.2,286046995.5,N
1582228255.9,286046993.4,N
1582228275.7,286046994.6,N
1582228295.6,286046991.8,Y
1582228315.4,286046996.3,P
1582228335.2,286046995.4,P
1582228355.1,286046997.6,N
1582228356.0,286046997.6,N
1582228375.8,286046995.9,Y
1582228395.7,286046996.9,P
1582228415.5,286046996.7,P
1582228435.3,286046998.8,P
1582228455.2,286046999.1,N
1582228475.0,286046996.6,Y
1582228475.9,286046996.6,P
1582228495.8,286047000.7,N
1582228515.6,286046998.1,N
1582228535.4,286046996.8,N
1582228555.3,286046995.8,N
1582228575.1,286046995.2,Y
1582228595.9,286046997.5,P
1582228615.7,286046997.6,P
1582228635.5,286046997.3,P
1582228655.4,286046998.0,Y
1582228675.2,286046998.8,P
1582228695.1,286046999.2,N
1582228696.0,286046999.2,N
1582228715.8,286047000.8,N
1582228735.6,286046998.4,N
1582228755.5,286046996.7,Y
1582228775.3,286046997.0,P
1582228795.2,286046999.6,N
